Orbital Elements at Epoch 2459200.5 (2020-Dec-17.0) TDB
Reference: JPL 22 (heliocentric ecliptic J2000)
Element | Value | Uncertainty (1-sigma) | Units |
e | .1597285069662068 | 6.8155e-08 | |
a | 2.567970291116867 | 1.4393e-08 | au |
q | 2.157792230583194 | 1.8207e-07 | au |
i | .4844343629410844 | 5.5995e-06 | deg |
node | 250.8751910762933 | 0.00048096 | deg |
peri | 197.7182855154306 | 0.00048116 | deg |
M | 69.01573729745854 | 1.2448e-05 | deg |
tp | 2458912.343081897685 (2020-Mar-03.84308190) | 5.1545e-05 | TDB |
period | 1503.084580111464 4.12 | 1.2637e-05 3.46e-08 | d yr |
n | .2395074799937763 | 2.0136e-09 | deg/d |
Q | 2.97814835165054 | 1.6692e-08 | au |
|
| | Orbit Determination Parameters
Additional Information
|